ASTRA 1KR

Last updated on Wed Oct 15 2025 00:02:45 GMT+0000 (Coordinated Universal Time)

1 29055U 06012A 25287.27625154 .00000106 00000+0 00000+0 0 9991 2 29055 0.0441 42.6375 0005920 179.0059 280.0784 1.00272863 43236
UTC large
Height (km)
Speed (km/s)
/
Latitude / Longitude
Inclination (degrees)
Orbital Period (minutes)
Azimuth
Elevation
Range (km)
Doppler Factor

Next 0 passes for location: London (51.5072 / 0.1276)

Sorry there are no passes over London.